Location: Ferintosh
(52.7647°N, 112.9692°W)
Time: 17:14:43
(UTC+00:00)

S-56A Canister/Altair - Pass Details

Date: 30 May 2024
Orbit: 637 x 2489 km, 38.9° (Epoch: 22 June)

Event Time Altitude Azimuth Distance (km) Brightness Sun altitude
Rises 16:42:23 0° 273° (W) 5,605 11.5 45.7°
Reaches altitude 10° 16:47:35 10° 259° (W) 4,276 11.1 46.4°
Maximum altitude 16:54:47 20° 219° (SW) 2,999 10.7 47.3°
Drops below altitude 10° 17:00:28 10° 175° (S) 3,250 11.2 48.1°
Sets 17:03:44 0° 159° (SSE) 3,927 11.7 48.5°
